Home > Weather > Barrie > Past weeks

Flag for Canada Past Weather in Barrie, Ontario, Canada — Yesterday and Last 2 Weeks

Now
57 °F

Clear.


Feels Like: 57 °F
Forecast: 64 / 84 °F
Wind: No wind

Location: Borden

Current Time: Jul 24, 2016 at 4:48:47 AM

Latest Report: Jul 24, 2016 at 4:00 AM


Visibility: 9 mi

Pressure: 30.01 "Hg

Humidity: 94%

Dew Point: 55 °F

Location of BarrieLocation

Past Weather in Barrie — Graph

°F

Barrie Temperature Yesterday

Maximum temperature yesterday: 86 °F (at 1:00 PM)
Minimum temperature yesterday: 64 °F (at 11:00 PM)
Average temperature yesterday: 76 °F

High & Low Weather Summary for the Past Weeks

 TemperatureHumidityPressure
High93 °F (Jul 13, 3:00 PM)100% (Jul 9, 3:00 AM)30.29 "Hg (Jul 9, 3:00 AM)
Low43 °F (Jul 17, 4:00 AM)26% (Jul 22, 4:00 PM)29.67 "Hg (Jul 9, 4:00 AM)
Average72 °F66%29.97 "Hg
* Reported Jul 9 3:00 AM — Jul 24 3:00 AM, Barrie, Weather by CustomWeather, © 2016

Note: Actual official high and low records may vary slightly from our data, if they occured in-between our weather recording intervals... More about our weather records

Advertising

Barrie Weather History for the Previous 24 Hours

Scroll right to see more
 ConditionsComfort  
Time TempWeatherWind HumidityBarometerVisibility
3:00 AM
Sun, Jul 24
59 °FClear.2 mph94%30.01 "Hg9 mi
2:00 AM57 °FClear.No wind94%30.01 "Hg9 mi
1:00 AM61 °FClear.No wind88%30.01 "Hg9 mi
12:00 AM61 °FClear.No wind88%30.01 "Hg9 mi
11:00 PM
Sat, Jul 23
64 °FClear.No wind83%30.00 "Hg9 mi
10:00 PM68 °FClear.3 mph73%29.98 "Hg9 mi
9:00 PM73 °FSunny.5 mph65%29.97 "Hg9 mi
8:00 PM77 °FSunny.6 mph57%29.95 "Hg9 mi
7:00 PM81 °FSunny.8 mph48%29.95 "Hg9 mi
6:00 PM82 °FSunny.15 mph45%29.96 "Hg9 mi
5:00 PM84 °FSunny.14 mph43%29.95 "Hg9 mi
4:00 PM86 °FSunny.12 mph38%29.95 "Hg9 mi
3:00 PM86 °FSunny.12 mph38%29.93 "Hg9 mi
2:00 PM86 °FSunny.10 mph40%29.94 "Hg9 mi
1:00 PM86 °FSunny.8 mph43%29.94 "Hg9 mi
12:00 PM82 °FSunny.12 mph48%29.94 "Hg9 mi
11:00 AM82 °FSunny.10 mph48%29.94 "Hg9 mi
10:00 AM79 °FSunny.15 mph54%29.93 "Hg9 mi
9:00 AM79 °FSunny.7 mph54%29.92 "Hg9 mi
8:00 AM75 °FSunny.3 mph61%29.91 "Hg9 mi
7:00 AM70 °FSunny.6 mph69%29.89 "Hg9 mi
6:00 AM68 °FClear.7 mph73%29.90 "Hg9 mi
5:00 AM70 °FClear.7 mph69%29.90 "Hg9 mi
4:00 AM70 °FClear.7 mph64%29.90 "Hg9 mi
Weather by CustomWeather, © 2016

See weather overviewHow to use our weather pages